FENGYUN 1C DEB

Satellite information

Favourite Embed

Satellite Type and Status

DEBRISIN ORBIT

Key statistics

Satellite FENGYUN 1C DEB at a glance.

Uptime

9714

Days in orbit

Revolutions

≈ 14.2

Per day

Orbit

SSO

Sun Synchronous Orbit

Inclination

99.1

Latest

Satellite identification and parameters

Extended collection of information and parameters for FENGYUN 1C DEB.

Object identification

Identified? True

Debris? True

Object name: FENGYUN 1C DEB

International designator: 1999-025ACH

Object number (NORAD): 30370

Object ID (CCSDS): 30370

Country: PEOPLES REPUBLIC OF CHINA (PRC)

Current information (Y/N): Y

RCS size: SMALL

Orbital parameters

Period: 101.469 minutes

Inclination: 99.0563 deg

SMA: 7206.379 km

Apoapsis: 899.736 km

Periapsis: 756.753 km

RAAN: 42.0352 deg

Eccentricy: 0.00992061

Argument of periapsis: 319.1878 deg

Mean anomaly: 69.7173 deg

Mean motion: 14.19145972 rev/day

Mean motion (dot): 0.00004066 rev/day2

B* drag term: 0.0018708057 1/REarth

Two-line elements (TLE)

Creation date: Dec. 12, 2025, 10:14 a.m.

Reference frame: TEME

Reference center: EARTH

Epoch: Dec. 12, 2025, 2:25 a.m. UTC

TLE line 0: 0 FENGYUN 1C DEB

TLE line 1: 1 30370U 99025ACH 25346.10072209 .00004066 00000-0 18708-2 0 9991

TLE line 2: 2 30370 99.0563 42.0352 0099206 319.1878 69.7173 14.19145972970851

Live tracking on map

Real-time ground track for satellite FENGYUN 1C DEB.

In-orbit conjunctions

A list of the most updated potential collisions computed for object FENGYUN 1C DEB.

Target Orbit TCA Probability of collision Miss distance Type
FENGYUN 1C DEB SSO 2025-11-05 11:46:23 0.0001342969 159.0 (m) DEBRIS
CZ-6A DEB LEO 2025-04-03 17:48:43 0.0001076612 273.0 (m) DEBRIS
DMSP 5D-2 F13 DEB SSO 2024-11-10 04:33:04 0.000167106 98.0 (m) DEBRIS

Associated space launch

Chinese polar orbiting meteorological satellite

FENGYUN 1C DEB was lifted into orbit during the mission ‘Long March 4B | Feng Yun 1C’, on board a Long March 4B space rocket.

The launch took place on May 10, 1999, 1:33 a.m. from Launch Complex 7.

For more information about the launch, click the button.

Launch to space Long March 4B | Feng Yun 1C
Long March 4B | Feng Yun 1C

Agency: N/A

Status: Launch Successful

Launch date: May 10, 1999, 1:33 a.m. UTC

Rocket: Long March 4B

Launch pad: Launch Complex 7

Location: Taiyuan Satellite Launch Center, People's Republic of China

...

Latest news about this satellite

There are no fresh news available about this satellite. Check back as we update our databases every day.


Newsletter sign-up

Weekly statistics, charts and insights to help you stay on top of the space industry.